sat.trackr.live / text

‹ back to catalog

STARLINK-35843

NORAD 67606 · 2026-018T

PAYLOAD ACTIVE UNKNOWN

§ Identity

Operator
Country
US
Launch date
2026-01-29
Launch site
AFWTR
Launch vehicle
Mass (kg)
RCS (m²)

Purposes: comms

External: N2YO · Heavens-Above · Gunter

§ Orbital elements

Epoch: 2026-05-25T03:38:15.304992Z

Period
93.90 min
Inclination
97.2845°
Eccentricity
0.0000583
Mean motion
15.33482268 rev/d
Perigee alt
465.0 km
Apogee alt
465.8 km
Semi-major
6,843.6 km
B*
1.0201e-3
RAAN
210.3021°
Arg perigee
63.4563°
Mean anomaly
296.6739°
Rev number
1,905

§ Raw data

STARLINK-358431 67606U 26018T   26145.15156603  .00033041  00000+0  10201-2 0  99932 67606  97.2845 210.3021 0000583  63.4563 296.6739 15.33482268 19053

JSON: /api/v1/satellites/67606 · /tle

For live sub-satellite position, see the globe view (requires WebGL).

§ Visibility from observer

Set your observer location to see the next 7 days of passes ≥ 10°. The values pass through the URL so the page stays shareable.

No JS? Fill the form by hand. The geolocation button needs JavaScript.